Temp
18 18 18 18 18 18 18 18 17 17 18 18 18 18 18 18 18 18 18 19 19 19 20 19 18 18 18 19 19 18 19 19 18 18 18 18 18 17 17 16 16 16 16 16 16 16 16 15 15 15 15 15 15 15 15 15 15 15 15 15 15 15 15 15 15 15 15 15 15 15 15 15 15 15 15 15 14 14 14 13 13 13 13 12 12
18 17 18 18 18 18 18 17 17 17 17 17 18 18 18 18 18 18 18 19 19 19 20 19 18 18 18 19 19 18 18 18 18 17 17 18 18 17 17 17 16 16 16 16 16 16 16 16 15 15 15 15 15 15 15 15 15 15 15 15 15 15 15 14 14 15 15 15 15 15 15 15 15 15 15 15 15 15 14 13 13 12 13 13 12
18 17 17 17 18 18 18 17 17 17 18 17 18 18 18 18 18 18 18 19 19 19 19 18 18 18 18 19 19 18 18 18 18 18 17 18 18 17 17 17 17 17 16 16 16 16 16 16 16 15 15 15 15 15 15 15 15 15 15 15 15 14 14 14 14 14 14 15 14 14 15 15 15 15 15 15 15 15 14 14 13 13 13 13 12
18 18 17 17 17 17 17 17 17 17 17 17 18 18 18 18 18 18 19 19 19 19 19 17 18 18 18 18 19 19 18 18 18 18 17 17 17 17 17 17 17 17 16 16 16 16 16 16 16 16 16 15 15 15 15 15 15 15 15 15 15 15 14 14 14 14 14 14 14 14 14 14 14 14 15 15 15 15 15 14 14 13 13 13 12
18 18 17 16 17 17 17 17 17 17 17 17 18 18 18 18 18 18 19 19 19 19 18 17 18 18 18 18 19 19 18 18 18 18 17 17 17 17 17 17 17 17 17 16 16 16 16 16 16 16 16 16 16 15 15 15 15 15 15 15 15 15 15 14 14 14 14 13 13 13 13 13 13 14 14 15 15 15 15 15 14 13 13 13 13
17 18 17 17 17 17 17 17 17 17 17 18 18 18 18 18 18 18 19 19 19 19 16 16 18 17 17 18 18 18 18 18 18 18 18 17 17 16 17 17 17 17 17 17 17 17 17 16 16 16 16 16 16 16 15 15 15 15 15 15 15 15 15 15 15 14 14 14 13 13 13 13 13 13 14 14 15 15 15 15 14 14 13 13 13
17 17 18 18 18 17 17 17 17 17 17 17 18 18 18 18 18 18 19 18 19 18 16 16 18 17 18 18 18 18 18 17 17 18 18 17 17 16 17 17 17 16 16 17 17 17 17 17 16 16 16 16 16 16 16 16 16 16 16 15 15 15 15 15 15 15 14 14 14 14 14 13 13 13 14 14 14 15 15 15 14 14 14 13 13
17 17 18 17 17 17 17 17 17 17 17 17 18 18 18 17 18 18 18 18 18 18 16 16 18 17 17 18 18 18 18 18 17 18 18 17 17 16 17 17 16 17 17 17 17 17 17 17 17 17 16 16 16 16 16 16 16 16 16 15 16 15 15 15 15 15 15 15 15 14 14 14 14 14 14 14 14 15 15 15 15 15 14 14 13
17 17 17 17 17 17 17 17 17 17 17 17 17 18 18 18 18 18 17 18 18 17 15 15 16 17 18 18 18 18 18 18 18 18 18 18 17 16 17 17 17 17 17 17 17 17 17 17 17 17 17 16 16 16 16 16 16 16 16 16 16 16 15 15 15 15 15 15 14 14 14 14 14 14 13 13 14 15 15 15 15 15 15 14 14
17 17 17 17 17 17 17 16 16 17 17 17 17 17 18 18 18 17 17 18 17 16 16 15 16 17 17 17 17 18 18 18 18 18 18 18 18 16 16 18 17 17 17 17 17 17 17 17 17 17 17 16 16 16 16 16 16 16 16 16 16 16 16 15 15 15 15 15 14 14 14 14 14 14 13 13 13 13 14 14 14 15 15 15 15
17 18 18 17 17 17 17 17 16 17 17 17 17 16 17 18 17 17 17 17 17 16 16 15 16 17 17 17 17 17 18 18 18 18 18 18 18 16 16 17 17 17 17 17 17 17 17 17 17 17 16 16 16 16 16 16 16 16 16 16 16 16 16 16 16 15 15 15 15 15 15 15 15 14 14 13 13 13 13 13 13 13 14 15 15
17 18 17 17 17 17 17 16 16 17 17 17 16 16 17 17 17 17 17 17 17 17 16 15 16 17 17 17 17 17 17 18 18 18 18 18 18 17 17 17 17 17 17 17 17 17 17 16 16 16 16 16 16 16 16 16 16 16 16 16 16 16 16 16 16 16 15 15 15 15 15 15 15 15 14 14 13 13 13 13 13 13 13 14 15
17 18 17 17 17 17 17 16 16 17 17 17 17 17 17 18 18 17 17 17 17 17 16 16 16 16 16 17 17 17 17 17 18 18 18 18 18 18 18 18 18 18 17 17 17 17 16 16 16 16 16 16 16 16 16 16 16 16 16 16 16 16 16 16 16 16 16 15 15 15 15 15 15 15 15 14 14 14 13 13 13 13 13 13 14
17 17 17 17 17 17 17 16 17 18 17 16 16 17 17 18 18 18 17 17 17 17 16 16 16 16 16 17 17 17 17 17 18 18 18 18 18 18 18 18 18 18 17 17 17 17 16 16 16 16 16 16 15 15 15 15 16 16 16 16 16 16 15 15 15 15 15 15 15 15 15 15 15 15 15 15 14 14 14 13 13 13 13 13 14
17 17 17 17 18 18 17 17 16 17 17 16 16 17 17 18 18 18 17 17 17 17 16 16 17 17 17 17 17 17 17 17 18 18 18 19 19 19 19 19 18 18 18 17 17 17 16 16 17 16 15 15 15 15 15 15 15 16 16 16 16 16 16 16 15 15 15 15 15 15 15 15 15 15 15 14 15 14 14 14 13 13 13 13 13
17 17 17 17 17 17 17 17 16 16 17 17 17 17 18 18 18 18 17 17 17 17 16 16 17 17 17 17 17 17 17 17 18 18 19 19 19 19 19 19 19 18 18 17 17 17 16 16 17 17 15 15 15 14 14 15 15 16 16 16 16 16 16 15 15 15 15 15 15 15 15 15 15 15 15 14 14 14 14 14 14 13 13 13 13
18 17 17 17 17 17 18 17 17 16 17 17 16 17 18 18 18 17 17 16 16 16 16 16 16 17 17 17 17 17 17 17 18 18 19 19 19 19 19 19 19 19 18 17 17 16 16 17 16 16 16 15 15 14 14 14 15 15 15 15 15 15 15 15 15 15 15 15 15 15 15 15 15 15 15 15 15 14 14 14 14 14 13 13 13
18 18 18 17 17 18 18 18 17 17 17 17 17 17 17 18 17 17 17 16 16 16 15 15 16 17 17 17 17 17 18 18 18 18 19 19 19 19 19 19 19 19 18 18 17 17 17 17 16 16 15 15 15 14 14 15 15 15 15 15 15 15 15 15 15 15 15 15 15 15 15 15 15 15 15 15 15 15 15 14 14 14 14 14 13
19 19 18 18 18 18 18 18 18 18 18 18 18 17 17 17 17 17 16 16 15 15 15 16 16 17 17 17 17 18 18 18 18 18 18 18 18 18 18 18 18 18 18 18 18 17 17 17 16 16 15 15 14 14 15 15 15 15 15 15 15 15 15 15 15 15 15 15 15 15 15 15 15 15 15 15 15 15 15 15 15 14 14 14 14
19 19 19 18 18 18 18 18 18 19 19 18 18 18 18 17 17 17 16 16 16 16 16 17 16 17 17 17 17 18 18 18 18 18 18 18 17 17 17 17 18 18 18 17 18 18 17 17 16 16 16 15 15 15 15 15 15 16 15 15 15 15 15 15 15 15 15 15 15 15 14 14 15 14 14 14 14 15 15 15 14 14 14 14 14
19 19 19 19 19 19 19 19 19 19 19 19 19 18 18 18 18 18 17 17 17 17 17 17 17 17 17 17 17 17 17 17 18 18 18 18 17 17 17 17 17 17 17 17 18 18 18 17 17 16 16 16 15 15 15 15 16 16 15 15 15 15 15 15 15 15 14 14 14 14 14 14 14 14 14 14 14 14 14 14 14 14 14 14 14
19 19 19 19 18 18 18 18 18 18 19 19 18 18 18 18 17 18 18 17 17 17 18 17 17 17 17 17 17 17 17 16 17 18 18 18 18 17 17 17 17 17 18 18 18 18 18 17 17 16 16 15 15 15 15 15 15 15 15 15 15 15 15 15 15 15 15 15 14 14 14 14 14 14 13 14 14 14 14 14 14 14 14 14 14
19 19 19 18 18 18 18 18 18 18 18 18 18 17 17 17 17 17 17 17 17 17 18 18 17 17 17 17 17 17 17 17 17 18 18 18 18 18 18 18 17 18 18 18 18 18 17 17 17 16 16 15 15 15 15 15 15 14 14 14 14 14 14 14 14 14 14 14 14 14 14 14 14 14 14 14 14 14 14 14 14 14 14 14 14
18 18 18 18 18 18 18 18 18 18 18 18 18 18 17 17 17 17 17 17 17 17 17 17 17 17 17 18 18 18 19 18 19 19 18 19 19 18 18 18 18 18 19 19 19 18 18 17 17 16 16 15 14 14 14 14 14 14 14 14 14 14 14 14 14 14 14 14 14 14 14 14 14 15 15 15 15 14 14 14 14 14 14 14 14
18 18 18 18 18 18 18 18 18 18 18 18 18 18 17 17 17 17 17 17 17 17 17 18 18 18 18 18 18 19 19 19 19 19 19 20 20 19 19 19 18 18 19 19 19 18 18 18 17 17 16 15 14 14 14 14 14 14 14 13 13 13 13 13 13 13 13 14 14 14 14 14 14 14 14 15 15 15 14 14 14 14 14 14 14
18 18 18 18 18 18 18 18 17 17 18 18 18 18 17 17 17 17 17 17 17 17 18 18 18 18 19 19 19 19 20 20 20 20 20 21 21 20 19 19 19 19 19 19 19 18 18 18 17 16 16 15 14 14 14 14 14 13 13 13 13 13 13 13 13 13 13 13 13 13 13 14 14 14 14 14 14 14 14 14 14 14 14 14 14
18 18 18 18 17 17 17 17 17 17 17 18 18 18 17 17 17 17 17 17 17 18 18 18 18 19 19 19 19 19 20 20 20 20 21 21 21 20 20 20 19 19 19 19 19 19 18 18 17 16 15 15 15 14 14 14 14 13 13 13 14 14 14 14 14 14 14 14 14 14 14 14 13 13 13 13 13 13 13 13 14 14 14 14 14
18 17 17 17 17 17 17 17 17 17 18 18 18 18 17 17 18 18 17 17 17 17 17 18 18 18 19 19 19 19 19 19 19 20 20 20 20 21 21 20 20 19 19 19 19 19 18 18 17 16 16 15 15 15 14 14 14 13 13 13 14 14 14 14 14 14 14 14 14 14 14 14 14 14 14 13 13 13 13 13 13 13 13 13 13
17 17 17 17 17 17 17 17 17 17 17 18 18 18 17 17 18 17 17 17 17 17 17 18 18 18 18 18 18 18 18 19 19 19 20 20 20 20 20 20 20 19 18 18 18 18 18 18 17 16 16 16 15 15 15 15 14 14 13 14 14 14 14 14 14 14 14 14 14 14 14 14 14 14 14 14 14 14 14 14 14 14 13 13 13
17 17 17 17 17 17 17 17 17 17 17 17 17 17 17 17 17 17 17 17 17 17 17 17 18 18 18 18 18 18 18 18 19 19 19 19 20 20 19 19 19 19 18 18 17 18 18 17 17 17 16 16 16 15 15 15 15 14 14 14 14 14 14 14 14 14 14 14 14 14 14 14 14 14 14 14 14 14 14 14 14 14 14 14 14
17 17 17 17 17 17 17 17 17 17 17 17 17 17 17 17 17 17 17 17 17 17 17 17 18 18 18 18 18 18 18 18 18 18 19 19 19 19 19 19 19 19 18 18 16 17 17 17 17 17 16 16 16 16 15 15 15 15 14 14 14 14 14 14 14 14 14 14 14 14 14 13 13 13 14 14 14 14 14 14 14 14 14 14 14
17 17 17 17 17 17 17 17 17 17 17 17 17 17 17 17 17 17 17 17 17 17 17 17 17 18 18 18 18 18 18 18 18 18 19 19 19 19 19 19 19 19 19 17 16 16 17 17 16 17 16 16 16 16 15 15 15 15 14 14 15 15 14 14 14 14 14 14 14 14 14 13 13 13 13 13 13 13 13 14 14 14 14 14 14
17 17 17 17 17 17 17 17 17 17 17 17 17 17 17 17 17 17 18 18 17 18 18 18 18 18 18 18 18 18 18 18 18 18 19 19 19 19 19 19 19 19 18 18 16 16 16 17 17 17 16 16 16 16 16 15 15 15 15 15 15 15 15 14 14 14 14 14 14 14 14 13 13 13 13 13 12 13 13 13 13 13 14 14 13
17 17 17 17 17 18 18 18 17 17 17 17 17 18 18 18 18 18 18 18 18 18 18 18 18 18 18 18 18 18 18 18 18 18 19 19 19 19 19 18 18 18 18 18 17 16 16 16 17 17 16 16 16 16 16 16 16 15 15 15 16 16 15 15 15 14 14 14 14 14 14 13 13 13 13 12 12 12 12 12 12 13 13 13 13
17 17 18 18 18 18 18 18 18 17 17 17 17 18 17 17 18 18 18 18 18 18 18 18 18 18 18 17 17 17 17 18 18 18 19 19 19 19 19 18 18 18 18 18 18 17 16 16 16 16 16 16 16 16 16 16 16 16 16 16 16 16 15 15 15 15 15 14 14 14 13 13 13 13 12 12 12 12 12 12 12 12 12 12 12
17 18 18 18 18 18 18 18 18 18 18 17 17 17 17 17 18 18 18 18 18 18 18 18 18 17 17 17 17 17 17 17 18 18 18 18 18 18 18 18 18 18 18 18 18 18 17 17 17 17 16 16 16 16 17 17 16 16 16 16 16 15 15 15 15 15 14 14 14 14 13 13 13 13 12 12 12 12 12 12 11 11 11 11 11
18 18 18 18 18 18 18 18 18 18 18 17 17 17 17 17 17 17 17 17 18 18 18 18 18 17 17 17 17 17 17 17 17 17 18 18 18 18 18 18 18 18 17 17 17 18 18 17 17 17 17 17 17 17 17 17 16 16 16 16 16 15 14 14 14 14 14 14 14 14 14 13 13 12 12 12 12 12 12 12 12 11 11 11 11
18 18 18 18 18 18 18 18 18 18 18 18 18 18 17 17 17 17 17 17 18 18 18 18 18 17 17 17 17 17 17 17 17 17 17 17 17 17 17 17 17 17 17 17 17 17 17 17 17 17 17 17 17 17 17 17 16 16 16 15 15 14 14 14 14 14 14 14 14 14 14 14 13 13 12 12 12 12 12 12 12 11 11 11 11
18 18 18 18 18 18 18 18 18 18 18 18 18 18 17 17 17 17 17 17 17 17 17 18 17 17 17 17 17 17 17 17 17 17 17 17 17 17 16 16 16 17 17 17 17 17 17 17 17 17 17 17 17 17 17 16 16 16 15 14 14 14 14 14 13 13 14 14 14 14 14 13 13 12 12 12 12 12 12 12 12 12 11 11 11
18 18 18 18 18 18 18 18 18 18 18 18 18 18 17 17 17 17 17 17 17 17 17 17 17 17 17 17 16 16 16 16 16 16 16 16 16 16 16 16 16 16 16 17 17 17 16 17 17 17 17 17 17 16 16 16 15 15 14 14 14 14 14 13 13 13 13 13 13 13 13 13 12 12 12 12 12 12 12 12 12 12 11 11 10
18 18 18 18 18 18 18 18 19 18 18 18 18 18 18 17 17 17 17 17 17 17 17 17 16 16 16 16 16 16 16 16 16 16 16 16 16 16 16 16 16 16 16 16 16 16 16 16 16 17 17 17 17 16 16 15 15 15 14 14 13 13 13 13 13 13 13 13 13 12 12 12 12 12 11 11 12 12 12 12 12 12 11 11 10
18 18 18 18 18 18 18 18 19 19 18 18 18 18 18 17 17 17 17 17 17 16 16 16 16 16 16 16 16 16 16 16 16 16 16 15 15 16 15 15 15 15 16 16 16 16 16 16 16 16 16 16 16 16 16 15 15 14 14 13 13 13 13 12 12 12 12 12 12 12 11 11 11 11 11 11 11 12 12 12 12 12 11 11 11
18 18 17 18 18 18 18 18 18 19 18 18 18 18 18 18 17 17 16 16 16 15 15 15 15 15 15 15 16 16 16 16 15 15 15 15 15 15 15 15 15 15 15 15 15 15 15 15 16 16 15 15 15 15 15 14 14 13 13 12 12 12 12 12 12 12 12 11 11 11 10 11 10 10 10 11 11 11 11 12 11 11 11 11 11
17 17 17 17 17 18 18 18 18 18 18 18 18 18 18 18 17 17 16 15 15 15 15 15 15 15 15 15 15 15 16 16 15 15 15 14 15 15 15 15 15 14 14 15 15 15 15 15 15 15 14 14 13 14 13 13 12 12 12 12 12 11 11 11 11 11 11 11 10 10 10 10 10 10 10 11 11 11 11 11 11 11 11 11 10
16 16 16 16 17 17 17 17 17 17 16 17 18 18 18 17 17 16 16 15 15 15 15 15 15 15 15 15 15 15 15 15 15 14 14 14 14 14 14 14 14 14 14 14 14 14 14 14 14 13 13 13 12 12 12 12 12 12 11 11 11 10 10 10 10 10 10 10 10 9 9 10 10 10 11 11 11 11 11 11 11 10 10 10 10
16 16 16 16 16 16 16 16 16 15 15 16 16 17 17 17 17 16 16 15 15 15 15 15 15 15 14 14 15 15 15 15 14 14 14 14 14 14 14 13 13 13 13 13 13 13 13 13 13 13 12 12 12 11 11 11 11 10 10 10 10 9 9 9 9 9 10 10 10 9 9 10 10 11 11 11 11 11 11 10 10 10 10 10 10
15 15 15 15 16 16 16 15 15 15 15 15 16 16 16 16 16 16 15 15 14 14 14 15 15 15 14 14 14 14 14 14 14 14 14 14 14 13 13 13 12 12 12 12 12 12 12 12 13 12 12 12 11 11 11 11 10 10 10 9 9 9 9 9 9 9 10 10 10 10 9 10 10 10 10 10 10 10 10 10 9 9 9 9 9
15 15 15 15 15 16 15 15 15 14 14 15 16 15 15 16 16 15 15 14 14 14 14 14 14 15 14 14 14 14 14 14 14 14 14 13 13 13 12 12 11 12 12 12 12 12 12 12 12 12 12 11 11 11 10 10 10 10 9 9 9 8 8 8 8 9 9 9 10 9 9 9 9 9 9 9 9 9 9 9 9 9 9 9 9
15 15 15 15 15 15 15 15 15 15 14 14 15 15 15 15 15 15 15 14 14 13 14 13 13 14 14 14 14 14 13 13 13 14 13 13 13 13 12 11 11 11 11 11 11 11 11 11 11 11 11 11 10 10 10 10 9 9 9 9 8 8 8 7 8 8 9 9 9 8 8 8 8 8 8 8 8 8 8 8 8 8 8 8 8
16 16 15 15 15 15 15 15 15 15 14 14 14 14 14 14 14 14 14 14 13 13 13 13 13 13 13 13 13 13 13 13 13 13 13 13 13 13 12 12 11 11 11 11 11 11 11 11 11 11 10 10 10 10 9 9 9 9 9 8 8 7 7 7 7 8 8 8 8 8 8 8 7 7 7 7 7 7 7 7 8 7 7 7 7
16 16 16 16 15 15 15 15 15 14 14 14 14 14 14 14 14 14 14 13 12 13 13 13 12 12 13 13 13 13 13 12 12 13 13 13 13 13 12 12 11 11 11 11 11 11 10 10 10 10 10 10 9 9 10 9 9 9 9 8 8 7 7 7 7 8 8 8 8 8 7 7 6 6 6 6 6 6 6 6 6 6 6 6 6
Height
822 823 823 823 824 824 825 826 826 826 826 826 825 826 826 827 828 828 828 828 827 829 831 831 833 833 834 835 836 837 837 837 837 838 839 840 841 842 844 845 846 846 847 848 848 849 850 850 850 850 851 851 850 851 851 851 851 851 851 851 851 851 851 851 851 852 852 852 852 852 853 852 852 852 852 852 852 852 852 852 852 852 852 852 852
823 824 825 824 824 825 825 826 827 827 826 826 826 826 826 827 828 827 828 828 828 830 831 831 832 833 835 834 835 838 838 838 839 839 839 841 842 843 844 845 846 847 847 848 849 849 850 850 850 851 851 851 851 851 851 851 851 851 852 852 852 852 852 852 852 852 852 853 853 853 853 853 853 853 853 853 853 853 853 853 853 853 853 853 853
823 825 826 826 826 826 826 827 828 828 827 827 826 826 825 826 827 827 828 828 829 831 832 833 833 834 836 835 836 838 839 839 840 840 840 842 843 843 844 846 847 848 848 848 849 850 850 851 851 851 852 852 852 852 852 852 852 852 852 852 852 852 852 852 852 852 853 853 853 854 854 854 854 854 854 854 854 854 854 854 854 854 854 854 854
822 824 826 827 827 826 827 828 828 828 827 827 827 826 825 826 827 828 828 829 830 832 833 834 835 835 836 838 837 839 840 840 841 841 842 842 844 845 845 846 847 848 848 849 849 850 850 851 851 852 852 852 853 853 853 853 853 853 853 853 853 853 853 853 853 853 853 853 854 854 855 854 854 854 854 854 854 854 854 854 854 854 854 854 854
821 822 824 827 827 826 827 827 828 827 827 827 827 827 826 827 827 828 829 830 832 833 835 837 838 836 837 839 839 839 840 841 842 843 844 844 844 846 846 846 847 848 849 849 850 850 850 851 851 852 853 853 854 853 853 854 854 854 854 854 854 853 853 853 853 853 853 854 854 855 855 855 855 855 855 854 854 854 855 855 855 855 855 855 855
821 822 824 825 825 825 826 827 827 827 827 827 827 827 827 827 828 829 830 831 833 835 838 840 839 838 838 839 839 840 841 842 843 844 844 845 845 846 846 846 847 848 849 849 850 850 850 850 851 852 852 853 854 854 854 854 854 854 854 854 854 854 854 854 854 854 854 854 854 855 855 855 855 855 855 855 855 855 855 855 855 855 856 856 856
821 823 823 824 823 824 825 825 826 827 828 828 827 827 828 828 828 830 831 832 833 836 840 841 840 840 839 838 839 840 841 843 844 844 844 845 845 846 846 847 848 849 849 849 849 850 850 851 851 852 852 853 854 854 855 855 855 854 854 854 854 854 854 854 854 854 854 854 854 855 855 855 855 855 855 855 855 855 855 855 855 855 856 856 856
821 822 823 823 823 823 824 824 825 827 829 829 828 828 828 828 829 830 831 832 833 836 841 843 840 840 840 839 840 841 841 843 844 844 843 844 845 846 847 848 849 849 849 850 850 850 851 851 851 852 853 853 854 854 854 855 855 855 855 855 854 854 854 854 854 854 854 854 855 855 855 855 855 855 855 855 855 855 855 855 855 855 856 856 856
820 822 822 822 823 822 823 824 826 828 829 829 829 828 828 829 829 830 831 831 833 837 842 844 842 841 841 840 840 841 842 843 844 845 845 845 845 846 848 849 849 849 849 850 850 850 851 851 851 852 852 853 853 854 854 854 855 854 855 855 855 855 854 854 854 854 855 855 855 855 856 855 855 855 856 855 855 855 854 855 855 855 856 856 856
820 821 821 821 821 822 824 826 827 829 829 829 829 829 829 829 829 830 831 831 834 839 842 844 843 841 840 840 840 841 841 842 844 844 845 845 845 846 849 850 849 848 848 849 850 850 851 851 851 852 853 853 853 854 854 854 854 854 854 855 855 855 855 855 855 855 855 855 855 856 856 856 856 856 856 856 856 855 854 854 855 855 856 856 856
820 821 821 820 820 822 824 825 827 828 828 828 829 829 829 830 830 830 831 831 835 839 842 844 843 840 839 840 841 841 841 842 844 844 845 845 846 847 849 849 848 848 848 848 849 850 850 851 851 852 853 853 854 854 854 854 854 855 855 855 855 854 855 855 855 855 855 855 855 855 856 856 856 856 856 856 856 855 855 855 855 855 855 856 856
820 820 820 820 820 821 822 824 826 826 825 826 827 828 828 829 830 830 832 833 836 839 841 843 842 840 839 840 841 842 842 843 844 845 846 846 847 848 848 847 847 848 849 849 849 850 850 851 852 853 854 854 854 854 854 854 854 855 854 854 854 854 854 854 854 854 854 855 855 855 855 855 855 855 856 856 856 856 855 855 855 855 855 855 856
820 819 819 819 818 820 822 825 825 823 824 825 826 827 828 829 830 831 832 834 836 837 839 842 842 841 841 841 841 842 843 843 844 845 846 847 847 848 848 847 847 848 849 849 850 850 851 851 852 852 853 854 854 854 854 854 854 854 854 854 854 854 854 854 854 854 854 854 854 855 854 854 854 855 855 856 856 856 856 856 855 855 855 855 856
819 819 819 819 818 819 821 824 823 822 823 825 825 827 827 829 830 831 833 833 834 836 838 841 841 841 842 842 843 843 843 843 844 846 847 848 848 848 848 848 848 848 849 850 850 851 851 851 851 852 852 853 854 855 854 854 854 854 854 854 854 854 854 853 853 853 853 853 853 853 854 854 854 854 855 855 855 855 855 856 855 855 855 855 855
819 820 820 819 818 819 821 823 823 822 823 824 825 826 827 828 830 831 832 833 833 835 837 839 840 842 843 844 844 844 844 844 845 846 847 848 848 849 849 849 850 849 850 850 851 852 852 851 851 851 852 853 854 855 855 854 854 853 853 853 854 854 853 853 853 853 853 852 852 852 852 853 853 853 853 853 854 854 854 855 855 855 855 855 855
819 820 821 820 820 820 821 822 823 823 823 824 824 825 827 828 829 831 831 832 833 833 835 838 841 842 843 844 845 845 846 846 845 846 847 848 849 849 850 850 850 851 852 852 852 852 852 851 851 851 852 854 855 855 854 854 854 853 853 853 854 853 853 853 853 852 852 852 852 851 851 852 852 852 852 852 852 853 853 854 854 855 855 854 854
820 821 821 821 821 821 821 821 822 823 824 824 825 826 826 827 829 830 830 832 832 832 835 839 841 841 842 843 844 846 846 846 846 847 847 848 850 850 850 851 851 852 853 853 853 853 853 852 852 852 853 854 855 855 854 854 854 854 854 854 854 854 853 853 852 852 852 852 851 851 851 851 851 851 851 851 851 852 852 853 853 854 854 854 853
821 821 822 822 822 821 821 821 822 823 823 824 825 826 827 828 829 830 830 833 834 835 837 839 840 840 841 841 843 844 843 844 846 848 848 849 850 851 851 852 852 853 853 854 854 854 854 853 853 853 854 856 856 855 855 855 854 854 854 854 854 854 853 853 853 852 852 852 852 851 851 851 850 850 850 850 851 851 852 852 853 853 853 853 853
821 822 822 822 822 822 822 822 822 822 823 824 824 825 827 828 829 830 831 834 837 838 838 839 839 840 840 841 841 841 842 843 845 847 849 850 851 851 852 853 853 853 854 855 855 855 854 854 854 855 856 857 857 856 855 855 855 855 854 854 854 854 854 853 853 852 852 852 852 851 851 851 850 850 850 850 850 851 852 852 852 852 852 852 852
821 821 822 822 822 822 822 822 822 822 822 823 824 825 826 828 829 831 832 834 837 838 837 837 837 838 839 841 842 841 842 843 844 846 848 851 853 853 854 855 855 855 856 856 856 856 856 855 855 856 857 857 857 857 856 856 856 855 855 855 855 854 854 854 853 853 852 852 852 852 852 851 850 850 850 850 850 851 851 851 851 851 851 851 851
821 821 822 822 822 823 823 823 823 822 822 822 824 825 827 828 829 831 832 834 835 836 836 836 837 838 839 840 841 842 842 843 845 846 847 850 853 855 856 857 857 857 857 857 857 857 857 857 857 857 857 858 858 858 857 857 856 856 856 856 855 855 855 854 854 853 853 853 853 852 852 852 851 851 850 850 850 850 850 850 851 850 850 850 850
820 821 821 821 822 822 823 823 823 823 823 823 824 826 827 828 829 830 832 833 834 835 836 837 838 839 839 840 841 842 842 844 845 845 846 848 851 854 856 857 857 857 858 858 858 858 858 858 858 858 858 858 859 858 858 857 857 857 857 857 856 856 856 855 855 855 854 854 854 853 853 852 852 851 851 851 851 851 850 850 850 850 849 849 849
820 821 821 821 822 822 823 823 824 824 824 824 825 826 827 829 830 831 832 833 834 835 836 837 839 840 840 840 841 841 841 843 843 844 846 847 849 852 854 856 856 856 857 858 858 858 859 859 859 859 859 859 859 859 859 858 858 858 858 858 857 857 857 856 856 856 855 855 854 854 854 853 853 852 852 852 852 851 851 851 851 850 849 849 848
820 821 821 822 822 823 823 824 824 825 825 826 826 827 828 829 830 831 833 834 835 836 836 837 839 839 839 840 840 840 840 841 842 843 844 845 846 849 852 854 855 856 857 857 858 859 859 860 860 860 859 859 859 859 859 859 859 859 859 859 858 858 858 857 857 856 856 855 855 855 854 854 853 853 853 852 852 852 852 851 851 850 850 849 849
820 821 822 823 823 823 824 824 825 826 827 827 828 828 829 829 830 832 833 834 835 836 837 838 839 839 840 840 840 840 841 841 841 842 843 843 844 846 849 852 853 855 856 857 858 859 860 860 861 861 861 860 860 860 860 860 860 860 860 860 859 859 859 858 858 857 857 856 856 856 855 855 854 854 853 853 853 852 852 852 851 851 850 849 849
820 821 822 822 823 823 824 825 826 827 828 828 829 829 830 830 831 833 834 835 836 837 838 838 839 839 840 840 840 840 840 841 841 841 842 842 843 844 847 849 851 852 854 856 857 858 860 861 861 862 862 862 861 861 861 861 861 860 861 861 860 860 859 859 858 858 858 857 857 857 856 856 855 855 854 853 853 853 853 852 852 851 850 849 849
819 821 822 822 823 824 825 826 827 828 829 829 830 831 831 832 832 833 834 835 836 837 838 839 839 840 840 840 840 840 841 841 841 841 841 842 842 843 845 848 850 851 852 854 856 858 860 861 862 862 863 863 863 862 862 862 861 861 861 861 861 861 860 860 859 859 859 858 858 857 857 856 856 855 854 854 854 853 853 852 852 851 850 849 849
819 820 821 822 823 824 825 826 827 828 829 830 831 831 832 833 833 834 835 836 837 838 839 839 840 840 840 841 841 841 842 842 842 841 841 842 842 844 846 846 848 850 852 854 856 858 860 861 862 863 863 863 864 863 863 863 862 862 861 861 862 861 861 861 860 860 859 859 858 858 857 857 856 855 855 854 854 853 853 852 851 850 850 849 848
819 820 821 822 823 824 825 826 827 828 829 830 831 832 833 833 834 834 835 836 837 838 839 840 840 841 841 842 842 843 843 842 842 842 842 842 843 845 846 846 847 849 851 854 856 857 859 860 861 863 863 863 864 864 864 864 863 863 862 862 862 862 861 861 861 861 860 860 859 859 858 857 856 855 855 854 853 853 852 851 851 850 849 848 848
818 820 821 822 822 824 825 826 827 828 829 830 831 832 833 833 834 835 836 837 838 838 839 840 841 842 842 842 843 844 844 844 844 844 844 844 845 846 846 846 846 847 849 853 857 858 859 860 861 862 863 863 864 864 864 864 864 863 863 863 862 862 862 861 861 861 861 860 860 859 858 858 857 856 855 854 853 852 852 851 850 849 849 848 847
818 819 821 821 822 824 825 826 827 828 829 830 831 832 833 833 834 835 836 837 838 839 840 841 841 842 843 843 844 844 845 845 845 846 846 846 846 846 847 847 848 848 849 852 856 859 859 860 862 863 863 863 864 864 864 864 864 864 863 863 862 862 862 862 861 861 861 860 860 859 859 858 857 856 855 854 853 852 851 850 849 849 848 847 846
818 819 820 821 822 823 825 826 827 828 829 830 831 832 833 834 835 836 837 838 839 840 841 841 842 843 843 844 845 845 846 846 846 847 847 847 847 847 848 849 849 850 851 852 856 859 860 860 861 862 863 863 863 863 863 864 864 863 863 863 863 862 862 861 861 860 860 860 859 859 858 858 857 856 855 854 853 852 851 850 849 848 847 846 845
818 819 820 821 822 823 825 826 827 829 830 831 832 832 833 834 835 836 837 838 839 840 841 842 843 844 844 845 845 846 846 847 847 848 848 848 848 848 849 849 850 851 852 852 854 857 859 859 860 861 862 863 863 863 863 864 863 863 863 863 862 861 860 860 860 860 859 859 858 858 857 857 856 856 855 854 853 851 850 849 848 847 846 845 845
818 819 820 821 822 823 825 826 828 829 830 831 832 833 833 834 835 836 837 838 839 840 841 842 843 844 845 846 846 846 847 847 848 848 849 849 849 849 849 850 850 851 852 853 854 855 857 859 859 860 861 861 862 862 862 863 863 862 862 862 861 860 860 859 859 859 858 858 858 857 856 856 855 855 854 852 851 850 849 848 847 847 846 845 844
818 819 820 821 822 824 825 826 828 829 831 831 832 833 834 835 835 836 837 838 840 841 842 843 844 845 846 846 847 847 848 848 848 849 849 849 850 849 849 850 851 851 852 853 854 855 856 857 858 859 859 860 860 860 860 860 861 862 862 862 861 861 861 860 859 858 858 858 857 856 856 855 854 853 852 851 850 849 848 847 846 846 846 845 844
817 818 820 821 823 824 825 826 828 829 831 832 833 834 835 836 836 837 838 839 840 841 842 843 844 845 846 847 848 848 849 849 849 849 849 850 850 850 850 851 851 852 853 854 854 855 856 856 857 858 858 859 859 860 859 858 859 860 861 860 860 861 861 861 859 858 858 858 857 856 855 854 853 852 851 850 849 848 847 846 846 845 844 844 843
817 818 820 822 823 824 825 826 828 829 830 832 833 834 835 836 837 838 839 840 841 842 843 844 845 846 847 847 848 849 849 850 850 850 850 851 851 851 851 851 852 852 853 854 854 854 855 856 857 857 858 858 858 859 858 858 858 858 858 859 859 859 859 858 859 858 858 858 856 855 854 852 852 850 850 849 848 848 847 846 845 844 843 842 842
818 819 820 822 823 824 825 826 827 828 830 832 833 834 836 837 838 839 840 841 842 843 843 844 845 846 847 848 849 849 850 850 850 851 851 851 851 851 851 852 853 853 854 854 854 854 855 855 856 856 857 857 857 857 857 857 858 857 857 857 857 857 857 857 857 858 858 857 856 855 853 852 851 850 849 848 847 847 846 845 844 843 842 842 841
818 819 820 822 823 824 825 826 827 828 829 831 833 834 835 836 838 839 840 841 842 843 843 844 845 846 847 848 848 849 849 850 851 851 851 852 852 852 852 852 853 854 854 854 853 854 855 855 855 855 855 855 855 855 856 856 857 856 856 856 856 856 857 856 856 857 857 857 855 854 854 852 851 850 849 848 847 845 844 843 842 841 841 840 840
818 819 821 822 823 824 825 826 827 828 829 830 831 833 835 836 838 839 840 841 842 842 843 844 844 845 845 846 847 847 848 849 851 851 852 852 852 853 853 852 853 853 853 853 853 853 854 854 854 854 854 854 854 854 854 855 855 855 855 855 856 856 856 856 856 856 856 855 854 853 853 852 850 849 848 847 846 844 843 842 841 840 839 839 839
818 819 820 822 823 824 824 825 826 827 828 829 830 832 834 836 837 839 840 841 841 842 843 843 843 843 844 845 845 847 848 849 850 851 851 852 852 852 853 853 853 853 853 853 853 853 853 853 853 853 853 853 853 853 853 853 853 854 854 855 855 855 855 854 854 855 855 854 852 851 851 850 849 848 847 845 844 843 842 841 840 839 838 838 837
818 819 820 822 822 823 824 824 825 825 826 828 830 831 833 835 837 838 839 840 840 841 841 841 842 843 843 844 844 846 847 848 849 850 850 851 851 851 852 852 852 852 852 853 853 853 854 853 853 853 852 852 852 852 853 852 852 853 853 854 854 854 854 853 853 854 854 853 851 850 848 848 848 846 844 843 843 842 841 840 839 838 837 836 836
818 819 820 821 821 822 823 823 824 825 826 828 829 831 833 834 836 837 838 839 839 839 840 840 841 842 842 842 843 843 844 845 847 848 848 849 849 849 850 850 851 851 852 852 852 853 853 853 852 852 852 852 852 852 852 852 851 852 853 854 854 854 853 853 852 852 852 852 851 848 846 845 845 844 842 842 841 841 840 839 838 837 836 835 835
818 818 819 820 820 821 822 822 824 825 826 828 830 832 833 833 835 835 836 837 837 838 839 839 840 840 840 841 841 841 841 842 844 845 846 847 847 847 847 848 848 849 850 851 851 851 852 852 852 852 851 851 851 851 852 851 851 852 852 853 853 853 853 853 852 851 851 850 849 847 844 843 843 842 841 840 840 839 839 839 837 836 835 834 834
817 817 818 819 819 820 821 822 824 825 827 829 830 831 831 832 833 833 834 835 836 836 836 837 838 838 838 839 839 839 839 839 841 843 844 844 845 845 845 846 846 847 848 849 850 850 850 851 851 851 851 851 851 851 852 852 852 852 852 852 853 853 852 852 852 851 850 849 848 845 843 842 842 840 839 839 839 838 838 837 836 835 834 833 833
816 817 817 817 818 819 820 821 822 822 826 829 830 830 830 831 831 832 833 834 834 835 835 835 836 836 836 837 837 837 836 837 839 841 842 842 843 843 844 844 845 845 846 847 848 848 849 850 851 851 851 851 851 851 852 852 851 852 852 852 852 852 852 851 851 849 848 847 846 843 841 841 840 839 838 838 838 837 836 836 835 835 834 833 832
816 816 816 816 816 817 818 820 820 820 823 826 827 827 829 829 829 830 831 831 832 833 834 834 834 834 834 834 834 835 834 835 837 839 839 840 841 842 842 843 843 844 844 845 846 847 848 849 849 850 850 851 851 851 851 851 851 852 852 852 852 851 850 850 849 848 847 846 846 843 840 840 840 838 837 837 836 835 835 834 834 833 833 831 830
815 814 814 814 814 815 816 817 817 818 820 822 823 824 825 827 827 828 828 829 830 831 832 833 833 832 832 832 833 833 832 833 836 838 837 838 839 840 841 841 842 842 843 844 845 846 847 848 848 849 850 850 851 851 851 851 851 851 851 851 851 850 849 849 848 847 846 845 845 843 840 839 839 838 836 835 835 834 833 833 832 832 831 830 828
813 813 813 812 812 812 813 813 814 815 816 818 820 821 822 824 824 824 825 826 827 828 830 831 831 831 830 830 831 831 831 832 836 838 837 837 839 839 840 840 841 842 843 844 845 846 847 847 848 849 849 850 850 850 851 851 850 850 850 849 849 849 849 848 847 846 845 845 844 842 840 839 838 837 835 834 834 833 832 832 832 831 829 828 827
812 812 812 811 811 810 810 810 811 812 814 815 817 819 819 820 821 821 822 823 823 825 826 827 828 829 828 827 828 829 830 832 836 837 836 837 838 838 839 839 840 841 842 843 844 845 846 847 848 848 849 849 850 850 850 850 849 849 849 849 848 848 848 848 847 845 845 844 843 842 840 839 838 837 835 833 833 833 832 831 830 829 828 827 826
810 810 810 809 809 808 808 808 809 810 811 813 814 815 815 816 817 818 819 820 821 822 823 823 825 825 825 825 825 826 828 831 834 834 835 836 836 837 838 839 840 840 841 843 844 845 846 847 847 848 848 848 849 849 849 849 849 848 848 848 848 847 847 847 846 845 844 844 843 841 840 839 838 837 836 834 831 831 831 831 830 828 827 826 825
Wind_Speed
9 9 9 9 8 6 7 7 6 7 8 8 8 7 5 4 6 6 6 4 2 6 7 5 5 6 4 5 9 11 13 13 13 12 10 11 11 10 10 10 11 11 10 9 8 8 7 6 6 7 5 3 5 7 8 9 10 11 10 10 10 10 10 9 8 8 8 8 8 8 8 8 8 8 8 8 8 8 7 7 8 8 8 9 9
10 9 8 8 7 6 6 5 5 7 8 6 6 6 5 5 5 6 5 5 3 5 6 5 5 7 4 5 9 11 15 15 14 15 12 10 11 11 9 8 9 10 10 10 8 7 7 6 6 7 6 4 4 5 6 7 8 9 9 9 9 9 9 9 8 7 7 7 7 6 6 7 7 6 6 7 7 7 7 8 8 7 7 8 8
11 9 9 9 9 8 7 6 5 8 9 7 6 5 5 4 4 5 4 3 3 2 3 4 2 5 5 5 7 9 12 12 13 14 12 10 11 12 10 8 8 9 10 11 10 9 7 7 6 6 5 5 5 4 4 5 6 6 7 7 7 8 8 8 7 7 6 6 5 5 5 6 6 6 5 6 6 6 7 7 7 6 6 7 8
9 8 9 10 10 10 9 8 7 8 7 6 6 5 5 4 4 5 2 1 0 2 1 4 3 4 5 7 7 7 10 10 9 12 12 11 11 11 11 10 9 8 8 9 10 10 9 8 7 6 5 5 5 4 4 4 4 4 5 6 5 6 6 7 7 6 5 5 4 4 5 5 5 5 4 5 5 5 5 6 5 5 5 7 7
8 10 9 9 9 9 10 8 7 7 7 7 6 6 5 4 5 5 4 3 1 3 3 7 5 4 4 7 7 8 9 7 7 8 11 12 11 11 11 11 10 8 8 7 8 8 9 9 8 7 6 5 4 3 4 4 4 4 5 6 6 6 6 6 6 5 4 4 4 3 4 4 4 4 4 4 4 4 4 4 5 4 4 5 4
9 11 9 8 9 8 7 7 6 6 7 6 7 7 5 5 6 5 6 5 2 2 8 9 8 6 5 7 9 10 9 7 7 6 8 11 11 10 10 9 10 9 8 8 7 7 7 8 8 8 6 6 5 3 4 4 4 4 4 5 6 6 6 6 6 6 5 4 3 2 2 2 2 3 3 4 4 3 3 3 3 3 3 3 3
9 10 9 10 9 7 8 8 7 6 5 5 7 8 5 5 7 5 5 5 2 5 13 10 8 10 8 9 11 10 9 8 7 5 4 6 8 8 8 7 8 8 7 7 8 7 7 6 6 6 5 6 6 5 4 3 2 3 4 3 4 5 5 5 5 6 6 5 4 3 2 1 1 2 2 2 3 3 3 2 2 2 1 1 2
9 10 10 10 9 8 8 8 7 6 5 5 7 8 6 5 6 5 4 3 3 5 13 10 5 9 10 10 10 9 10 11 10 7 3 3 5 7 7 6 7 7 5 5 6 6 6 7 6 5 4 4 5 5 4 3 2 0 1 2 3 3 4 5 3 3 5 6 5 4 3 2 2 2 2 2 1 2 2 1 1 1 1 1 1
9 10 10 10 9 8 8 8 7 6 5 5 7 8 7 5 6 6 3 3 4 5 10 8 4 5 9 10 9 8 9 10 10 8 5 4 3 7 9 7 7 6 5 5 5 5 5 5 5 5 5 4 3 4 3 2 2 2 1 1 2 3 4 5 5 4 3 3 3 4 4 3 3 2 2 3 2 1 0 1 1 1 1 1 1
9 10 10 11 10 9 9 8 8 7 6 5 6 7 6 5 6 8 5 3 5 6 7 7 5 4 8 9 8 7 7 8 7 6 7 5 2 7 11 8 7 7 7 7 5 5 5 4 4 3 4 3 3 3 2 1 1 1 0 0 1 3 4 5 5 5 5 3 2 3 3 3 3 3 2 3 3 3 2 2 2 1 1 1 2
10 9 9 10 9 8 9 9 9 9 8 6 6 6 7 6 8 9 5 2 5 5 6 7 6 4 5 6 7 6 6 5 3 4 6 6 5 7 9 7 6 6 7 7 5 6 6 5 5 5 4 3 2 4 4 3 2 1 1 2 2 3 4 4 5 6 6 5 5 5 5 5 4 4 4 4 4 4 4 3 3 2 2 2 2
9 9 10 10 8 8 8 9 10 10 11 9 8 8 8 8 8 7 5 5 7 6 7 9 8 6 4 4 7 6 5 4 2 4 4 5 8 8 7 6 5 7 9 6 5 6 6 6 6 6 5 3 1 3 3 2 1 1 1 2 2 2 3 4 5 6 6 6 6 7 8 8 7 6 5 6 5 5 5 5 4 3 3 3 2
9 9 10 8 7 8 8 11 10 10 11 9 8 10 9 8 8 7 5 6 7 5 7 9 8 6 4 3 5 5 4 4 3 4 4 5 8 9 9 7 6 8 10 8 6 6 6 6 6 6 6 4 3 4 5 4 3 1 1 2 2 3 3 3 4 5 6 7 7 7 8 9 9 9 7 7 7 6 5 5 6 6 4 4 4
9 10 10 8 7 7 8 11 9 8 9 8 9 11 10 8 9 8 6 6 5 4 5 6 6 5 4 3 3 3 3 4 5 4 3 4 7 9 10 9 8 7 7 8 8 8 8 8 6 6 7 6 5 5 5 5 4 3 2 2 1 2 2 2 3 4 4 6 7 7 8 9 10 11 10 10 9 8 7 6 7 8 6 5 5
8 9 9 8 7 7 10 12 9 8 8 8 9 10 10 9 10 10 9 7 5 6 7 5 5 6 4 1 1 1 3 4 4 4 4 4 6 8 9 10 10 7 6 8 9 9 10 6 4 6 9 8 7 6 7 6 5 4 3 3 2 2 2 3 3 4 5 6 7 7 8 9 10 11 11 11 11 10 9 8 7 8 7 6 6
8 8 8 7 7 7 9 11 10 9 9 9 10 10 10 10 10 10 10 8 5 4 6 6 7 7 4 1 1 0 2 2 2 4 4 5 7 7 7 9 10 10 9 9 9 9 8 5 4 7 10 10 10 9 9 7 6 6 5 4 4 4 4 4 5 4 5 6 6 7 8 9 9 10 10 11 11 11 10 10 9 9 9 8 8
8 8 7 7 7 6 6 8 8 9 9 10 11 10 9 9 8 10 11 9 5 4 5 6 9 10 4 1 1 1 1 4 4 3 3 4 7 7 8 9 9 11 11 11 12 11 9 9 9 11 12 12 10 9 7 5 6 7 7 6 7 7 7 8 8 8 8 7 7 7 7 9 9 10 10 10 11 10 10 10 10 10 10 9 9
8 9 8 8 7 6 5 5 5 6 7 8 10 10 9 8 7 7 8 8 8 8 10 8 10 10 6 3 1 1 3 7 5 2 3 5 10 10 10 11 10 12 13 12 13 14 12 13 14 15 15 12 9 7 5 6 7 8 9 9 9 8 8 9 10 10 10 9 9 8 6 6 7 9 10 10 10 10 9 10 10 10 11 11 11
8 7 8 8 8 6 5 4 3 4 5 5 7 7 7 8 9 8 7 9 14 15 13 9 8 9 7 5 1 1 6 8 3 2 3 6 13 16 14 14 14 15 15 13 13 13 13 15 17 17 15 14 11 8 7 9 10 10 11 12 12 11 10 10 10 10 11 10 10 9 9 7 6 7 9 10 10 9 9 10 10 10 11 12 12
8 7 8 8 6 5 3 2 1 2 3 5 6 6 6 8 10 10 10 12 15 16 14 10 8 8 7 5 2 5 8 7 5 6 4 4 8 12 13 13 14 14 13 12 12 13 14 16 16 15 13 13 9 7 8 11 11 12 14 14 14 14 13 12 11 11 12 12 11 10 9 7 7 8 7 8 9 9 9 10 11 10 11 12 13
8 6 7 7 6 5 5 3 2 3 1 5 8 7 7 9 10 10 11 11 9 10 13 11 9 9 8 7 5 7 8 6 7 9 5 4 5 5 8 11 11 12 13 13 13 13 14 15 16 13 10 8 7 7 9 11 12 13 14 15 15 15 15 15 14 14 14 13 13 13 12 11 10 10 8 7 8 8 9 9 9 10 11 12 13
7 5 6 8 6 6 7 5 5 6 6 8 8 6 5 7 9 10 10 10 8 8 9 9 9 9 8 9 8 7 7 4 7 9 5 4 7 6 10 10 8 10 13 15 14 13 14 14 15 13 8 6 7 8 9 10 12 13 14 14 14 15 15 15 16 16 15 15 15 15 15 15 14 14 11 10 10 10 10 10 9 8 8 10 12
6 5 7 8 7 7 8 6 5 6 7 8 7 5 6 7 9 10 9 10 10 9 8 8 11 11 9 9 9 9 9 8 10 12 7 5 9 7 11 13 9 9 12 14 15 15 14 14 13 11 6 4 5 8 10 11 11 12 13 13 14 14 14 15 15 16 16 16 16 16 16 16 15 15 14 13 13 13 13 13 12 12 10 8 8
5 5 6 6 6 7 7 7 7 7 7 7 6 7 7 7 9 9 10 10 10 9 9 9 11 12 12 12 12 12 13 13 14 15 12 12 14 9 12 14 9 9 12 12 14 14 14 14 13 11 7 5 5 7 9 11 11 11 11 13 13 13 14 14 15 15 16 16 16 16 16 15 15 15 15 15 15 15 15 15 15 15 14 13 12
6 6 6 5 6 7 7 8 8 8 8 6 7 8 7 8 9 9 10 11 10 10 11 11 9 10 11 11 13 13 11 9 9 11 14 15 15 11 14 16 12 11 13 13 14 13 12 12 11 11 10 7 5 6 8 11 11 10 11 13 13 13 13 14 14 15 15 15 15 15 15 15 15 15 15 15 15 15 15 15 15 15 15 15 14
7 6 6 5 7 7 8 9 8 8 8 8 9 10 10 11 12 12 13 13 13 12 11 10 9 9 10 10 11 11 8 7 7 7 9 9 10 13 14 14 14 14 14 15 15 13 12 11 10 9 8 7 5 3 6 10 11 9 10 13 14 14 13 14 15 15 15 15 15 15 15 15 15 15 15 15 15 14 14 14 15 15 15 15 15
8 7 6 7 8 7 7 8 8 9 9 9 10 12 13 14 14 14 15 14 14 13 12 11 11 11 11 12 13 11 7 5 6 6 5 4 11 18 13 7 8 8 9 13 14 13 13 12 10 9 8 7 5 2 3 8 10 9 9 12 15 15 13 15 16 17 17 17 16 16 16 16 16 16 16 15 15 15 15 15 15 15 15 15 15
9 7 7 7 7 7 8 8 8 8 8 9 10 11 13 13 13 14 14 14 14 13 13 13 12 11 11 11 12 11 8 7 7 9 10 10 14 15 8 6 4 5 6 8 9 11 12 13 12 9 8 6 4 4 3 6 9 7 6 9 14 15 13 15 17 18 19 19 19 19 18 18 18 18 17 17 17 16 16 16 16 16 16 16 16
10 8 7 7 7 8 8 8 8 8 8 9 10 11 12 12 12 13 13 14 15 14 14 14 12 11 12 12 12 11 10 10 10 11 13 12 11 8 5 5 7 4 3 4 5 7 8 10 11 9 6 6 6 6 5 5 7 6 2 6 12 13 12 13 15 17 18 19 19 20 20 20 20 20 20 19 19 18 18 17 17 17 17 17 17
10 9 8 8 8 8 9 9 8 8 8 9 9 10 11 11 11 12 13 14 14 14 14 13 12 13 13 14 14 13 12 12 12 12 13 11 7 8 12 13 14 10 7 7 5 7 9 10 10 8 6 7 8 7 4 5 6 5 2 6 11 12 10 11 13 14 15 16 18 19 20 20 19 20 20 20 20 20 19 19 18 17 17 16 17
10 10 9 9 8 8 9 9 8 8 8 9 9 9 10 11 12 12 12 13 14 14 14 13 13 14 15 15 15 14 13 12 11 9 10 9 7 8 12 13 15 14 14 13 5 6 10 9 7 6 5 5 4 2 4 6 7 6 2 4 10 11 8 9 11 12 12 13 14 17 20 20 19 18 18 18 19 20 20 20 19 19 18 18 17
9 10 9 9 8 8 8 8 8 8 8 8 8 9 10 10 11 12 12 13 14 14 14 13 14 14 14 13 12 12 12 11 10 7 8 10 9 9 8 10 11 11 14 17 10 6 9 8 6 4 4 3 1 2 5 5 7 8 1 2 8 10 6 7 11 12 12 12 13 16 19 21 21 20 17 16 17 18 18 19 19 20 20 19 19
9 9 9 8 8 8 8 7 7 7 7 7 8 9 9 10 11 12 12 12 13 13 14 13 13 13 12 11 10 10 9 9 8 7 8 7 6 5 5 7 8 7 10 16 14 9 7 7 8 5 3 2 2 4 4 3 7 7 2 5 7 8 5 7 12 12 11 12 13 16 19 21 23 22 17 17 19 19 17 18 18 18 19 19 19
10 9 8 8 8 8 8 8 7 7 7 7 7 8 9 10 11 11 12 13 13 14 13 12 12 12 11 10 9 8 7 5 4 6 7 3 3 5 7 9 9 6 5 7 10 13 10 8 8 6 4 2 1 5 4 3 5 6 4 5 6 6 4 6 10 11 13 14 14 16 19 21 23 23 20 20 23 22 20 20 18 15 16 17 19
10 10 9 8 8 8 8 8 7 7 7 7 7 7 9 10 10 9 12 14 13 12 12 11 11 10 10 9 7 6 6 3 3 5 4 2 4 7 8 8 7 5 4 5 5 10 13 10 8 8 9 4 1 6 5 5 5 3 6 5 7 6 4 4 9 13 15 16 16 18 19 20 23 23 21 22 25 24 23 22 19 16 15 17 19
10 10 10 9 8 8 9 8 8 8 8 7 7 8 9 9 8 9 11 13 12 11 11 12 11 10 9 8 7 6 5 4 4 4 2 4 4 5 4 3 3 3 1 3 4 3 7 8 6 7 8 4 3 5 4 2 2 2 7 8 6 3 4 7 11 14 16 17 20 21 20 20 21 21 20 22 24 24 23 22 20 18 18 21 22
10 10 10 10 9 9 9 9 9 9 8 8 7 8 9 8 8 9 10 11 11 10 10 11 11 10 9 8 7 6 4 3 3 2 2 3 4 4 2 1 4 7 5 0 3 3 2 2 1 2 3 2 5 4 3 4 1 3 6 6 3 6 9 12 13 14 16 19 21 22 21 21 21 19 20 23 24 24 24 22 20 19 19 22 22
11 10 10 11 10 10 10 9 10 10 9 9 9 9 10 9 9 9 10 10 10 9 9 10 9 9 7 6 6 6 4 3 2 2 2 1 3 4 5 6 3 6 5 0 2 3 1 1 1 2 3 4 5 6 6 7 8 6 5 5 7 9 12 15 14 14 16 17 18 20 21 20 19 19 22 23 24 26 25 22 20 18 18 21 21
12 11 10 11 11 11 11 10 10 11 11 11 10 11 10 10 11 10 10 10 9 8 8 8 8 8 6 5 5 4 3 2 2 3 3 2 4 5 6 6 4 1 2 3 3 5 4 3 4 4 4 6 7 7 7 7 8 6 6 8 10 11 12 13 13 15 17 17 16 17 18 17 17 20 22 23 26 27 25 22 20 19 18 19 19
12 12 11 11 11 11 12 12 12 12 13 13 13 13 12 11 11 10 10 11 9 9 9 8 8 9 8 7 6 4 3 2 1 2 3 4 4 4 5 7 7 6 6 4 3 6 8 6 6 6 7 8 7 8 8 4 3 4 7 9 9 11 12 11 13 17 19 18 16 16 17 17 18 21 23 26 28 26 23 21 20 20 19 19 18
11 12 12 11 12 12 12 13 13 14 15 15 15 15 15 14 13 12 12 12 11 11 10 7 9 11 10 9 6 4 4 4 3 4 5 6 6 5 5 6 6 6 8 6 5 6 7 8 10 11 8 7 6 5 4 0 2 2 5 6 6 8 10 12 16 17 17 17 17 18 19 20 22 25 27 28 26 22 20 21 21 21 20 20 19
10 11 11 12 13 13 14 14 14 16 16 17 17 17 17 17 16 15 14 13 13 14 12 9 10 11 11 10 8 6 5 6 6 8 9 10 11 11 10 10 9 8 7 7 7 8 8 10 12 11 6 5 6 4 2 1 1 1 2 3 5 9 12 13 15 15 14 15 18 22 25 26 26 27 27 25 22 20 20 20 20 21 21 22 21
9 10 11 12 13 13 14 15 15 16 17 17 17 17 18 18 17 17 16 14 14 16 15 11 10 12 12 11 10 8 7 8 10 11 13 13 13 14 14 14 14 13 11 9 8 9 8 9 10 8 6 6 7 5 3 5 6 4 4 5 8 11 12 12 12 13 14 17 21 26 30 29 25 23 23 21 20 19 19 19 21 22 22 22 22
9 9 10 12 13 13 14 15 16 15 16 17 18 17 19 20 19 19 18 17 15 16 17 12 10 12 12 11 10 11 10 11 13 14 14 13 11 11 12 13 14 15 15 12 9 7 6 4 5 6 4 5 7 5 4 5 5 5 7 9 10 10 11 11 12 15 18 22 25 26 26 24 22 21 22 20 19 18 18 19 21 22 22 22 21
11 11 11 12 14 15 17 17 14 9 7 12 16 19 21 22 22 21 20 18 18 19 20 16 13 13 13 12 12 11 9 11 13 13 13 14 12 10 9 10 12 14 14 14 12 9 7 4 1 4 3 3 5 4 4 6 7 8 9 10 9 9 11 13 15 19 22 23 24 24 23 22 21 21 21 19 18 19 19 19 19 20 22 22 21
14 14 13 14 16 17 16 14 12 9 8 11 15 18 21 23 24 23 21 17 17 19 20 19 17 15 15 14 14 13 11 13 14 13 14 16 13 10 9 9 10 11 11 13 14 13 11 9 4 1 1 1 2 2 4 7 8 7 6 7 9 11 14 16 18 22 21 19 20 22 22 20 19 20 21 20 20 20 20 19 19 20 22 24 25
14 13 13 15 18 19 17 14 14 13 14 17 19 19 21 24 26 25 22 17 14 15 17 17 17 18 18 17 16 15 14 14 14 15 16 15 12 10 9 7 7 8 9 10 10 10 9 9 8 6 4 3 2 3 6 7 7 7 7 9 11 13 15 17 18 19 18 16 18 19 17 17 19 21 22 21 20 20 20 21 21 22 23 24 26
11 12 12 14 17 18 19 19 18 15 14 19 24 25 24 26 27 26 23 18 14 14 15 16 18 19 19 19 17 15 16 17 16 16 14 11 10 9 10 10 9 7 7 7 7 7 8 7 8 8 6 6 7 7 8 9 10 11 12 12 12 11 12 14 15 16 15 15 16 17 18 17 18 20 21 20 20 22 23 23 23 22 22 22 22
10 12 13 14 16 18 20 22 22 20 18 19 24 28 28 28 29 29 26 23 20 18 17 18 19 18 18 18 17 16 16 17 16 16 14 12 10 11 14 13 9 7 7 7 7 8 8 7 7 7 7 8 9 9 10 11 11 11 10 9 8 9 10 12 13 13 14 15 16 16 16 17 18 20 22 22 23 24 24 23 21 20 20 21 21
11 14 15 16 17 18 20 22 24 24 23 20 22 26 27 28 30 31 28 27 25 23 22 22 20 20 20 20 18 17 16 16 17 17 16 15 13 14 15 12 8 6 7 8 8 8 8 7 6 6 7 8 9 10 11 12 11 9 8 7 7 7 8 10 12 13 14 15 14 13 15 17 19 20 22 23 22 21 21 21 22 22 22 23 23
12 14 16 18 19 20 21 23 25 26 26 26 25 26 27 28 29 31 30 27 25 24 24 23 21 21 22 21 20 19 17 16 18 19 19 17 14 14 14 11 9 9 7 5 6 6 4 3 4 6 7 9 10 11 12 11 10 9 8 8 8 7 8 11 13 13 11 10 11 14 16 17 17 18 20 19 16 16 19 21 21 23 24 23 24
Wind_Direction
184 188 196 197 198 204 219 220 221 221 222 233 227 221 234 245 230 219 233 220 206 252 236 221 184 142 141 150 127 125 147 150 134 129 118 111 125 142 155 157 150 140 133 132 131 127 122 114 108 113 116 105 97 89 89 92 89 86 82 78 74 70 67 64 66 66 65 63 64 66 63 66 69 70 75 79 86 83 78 77 77 75 71 74 75
188 195 205 209 209 216 235 234 233 227 222 234 232 223 223 238 225 193 211 202 186 258 233 213 183 139 152 169 138 132 146 154 145 136 130 122 125 133 144 153 153 145 138 133 129 126 124 120 111 112 116 115 107 93 93 90 85 84 79 75 71 68 63 58 60 62 66 68 67 64 57 62 67 69 69 72 80 80 80 77 75 69 59 71 77
189 193 198 198 197 205 223 231 234 228 221 224 231 233 215 220 214 192 212 188 162 265 200 193 166 126 138 133 124 133 139 144 147 145 140 130 125 127 133 139 146 146 142 137 131 127 122 118 113 110 109 110 112 111 108 93 81 77 73 69 63 62 59 54 55 57 63 65 68 68 61 63 64 65 65 66 74 80 86 84 82 74 55 66 76
187 190 200 197 192 195 198 209 227 230 222 212 217 221 206 212 211 190 185 126 120 265 140 89 109 135 113 97 102 116 120 125 136 149 149 137 128 127 125 124 131 142 143 141 137 133 128 123 121 116 104 101 115 116 111 108 93 74 63 65 62 56 53 49 49 50 59 60 64 63 57 61 55 53 58 62 71 82 90 92 93 84 65 70 75
195 197 203 198 192 194 191 199 216 225 224 209 206 214 205 204 198 176 150 112 90 220 95 79 129 155 105 102 116 119 122 128 122 140 153 148 146 140 127 118 118 123 127 130 132 132 134 135 135 131 120 113 116 95 96 101 87 82 65 63 65 57 51 45 41 43 52 61 74 67 49 55 45 41 54 57 63 77 88 97 101 94 82 83 84
208 208 207 203 197 191 189 197 207 223 228 206 196 209 208 198 186 159 151 126 90 137 96 103 134 124 124 131 125 120 119 125 120 129 147 149 154 148 139 134 124 117 117 120 123 125 133 139 140 140 135 128 127 104 100 97 60 60 63 65 63 53 49 46 45 46 47 52 75 87 58 55 37 29 53 59 54 62 75 86 99 107 102 89 84
210 214 206 209 210 188 187 195 198 223 232 199 196 207 202 189 179 152 150 139 119 76 81 106 133 110 124 135 127 126 114 109 113 118 124 140 153 151 157 159 142 138 132 125 126 125 126 128 129 134 134 130 133 131 129 130 52 20 28 43 41 34 25 25 42 52 50 48 57 75 80 63 14 345 4 47 57 57 60 69 85 106 111 98 90
211 217 201 203 212 189 193 197 185 204 217 196 199 209 204 185 180 157 143 147 152 68 76 105 137 112 123 131 129 128 117 113 114 118 114 126 148 148 152 152 146 158 159 145 141 132 128 129 129 132 137 131 134 144 151 156 168 317 349 336 343 350 340 343 1 34 43 46 49 50 56 52 29 352 313 327 34 76 77 74 87 117 115 108 113
201 206 201 200 205 191 196 191 174 192 206 200 200 209 209 197 188 170 170 170 135 75 84 120 180 148 135 133 129 122 118 115 112 124 136 133 149 134 131 140 153 166 170 163 160 149 139 139 140 141 146 151 151 155 156 162 187 192 185 254 307 318 309 316 327 336 354 23 37 34 34 30 15 360 302 299 312 326 133 161 106 133 148 137 160
195 198 202 202 203 192 188 174 162 183 195 195 197 206 204 193 190 180 195 203 125 82 84 130 203 181 129 125 127 120 115 110 110 129 134 130 137 120 121 137 158 170 176 165 162 171 163 154 151 145 148 156 171 182 179 190 227 228 357 306 295 314 310 303 306 305 302 302 296 315 348 351 345 342 313 279 280 296 290 229 216 201 184 168 180
193 190 193 200 204 193 181 165 159 176 185 184 189 201 197 179 178 176 177 150 125 111 95 132 181 168 121 123 123 114 105 104 115 127 117 112 115 120 125 142 161 167 166 158 157 168 166 161 152 138 140 141 172 200 200 205 235 275 323 328 307 299 302 295 285 284 289 297 295 288 299 311 316 318 310 288 260 264 289 275 235 226 226 206 195
173 170 185 197 198 190 176 156 161 185 187 185 192 197 193 180 174 169 158 128 128 134 114 125 144 131 118 122 116 112 106 102 106 112 105 98 108 109 100 109 129 131 132 136 143 145 149 155 147 135 127 99 124 185 175 166 191 262 318 338 342 333 307 292 282 276 277 284 288 283 284 292 298 297 294 290 269 254 277 289 277 269 261 248 231
149 153 174 188 187 188 174 149 163 194 183 178 196 192 187 187 178 166 156 132 123 126 120 124 125 112 109 102 96 103 114 118 101 101 103 96 105 104 97 97 94 101 110 112 121 123 119 122 121 126 122 99 101 120 110 103 92 61 359 346 358 13 357 328 307 287 276 275 276 275 276 279 281 283 283 284 279 265 258 259 269 283 288 284 280
155 152 156 175 182 175 168 153 161 188 169 165 193 188 182 183 174 167 161 139 133 148 150 142 133 131 136 111 94 97 101 106 98 96 110 113 117 116 119 121 104 90 91 97 108 103 97 106 108 121 131 124 118 105 94 88 60 35 19 360 334 349 347 344 331 301 286 280 276 274 274 275 275 274 273 274 277 276 265 253 259 272 283 289 291
141 145 149 172 181 161 163 158 150 168 168 168 186 184 180 179 170 164 156 153 174 176 165 171 159 144 145 132 143 123 76 72 85 93 105 128 135 130 128 127 120 115 104 98 100 93 93 107 121 127 130 126 119 94 73 67 54 45 46 37 21 4 347 335 321 296 288 285 279 277 274 273 275 275 273 270 268 270 271 267 260 261 271 281 283
112 130 145 163 174 163 167 163 149 162 174 173 182 185 184 184 177 169 159 154 177 190 168 188 195 167 148 120 130 76 67 84 120 115 130 139 124 114 113 118 119 119 118 108 103 100 96 101 114 123 127 120 107 89 68 56 53 61 65 59 53 44 37 26 10 349 327 313 296 283 274 272 275 278 278 273 267 265 267 269 267 263 267 273 275
93 109 124 142 158 155 163 174 169 172 177 177 179 182 185 189 184 171 163 153 157 222 216 195 198 188 174 138 101 359 130 151 157 128 151 146 117 107 97 98 106 109 110 104 106 110 95 89 105 110 113 112 97 86 79 56 44 54 57 52 49 42 38 35 26 21 16 2 341 314 287 277 278 279 281 280 276 273 273 270 268 267 266 266 265
86 91 97 111 123 115 119 150 168 168 169 179 178 177 182 185 191 174 159 156 160 205 225 200 190 194 207 242 288 318 149 150 161 118 105 99 89 88 82 80 91 99 99 93 101 111 95 85 100 104 103 101 85 74 78 61 43 39 41 37 33 29 26 25 21 20 25 23 11 1 341 310 296 287 283 283 284 287 289 281 272 269 267 265 265
91 90 90 99 107 98 97 118 140 140 133 155 166 176 188 178 190 190 167 169 173 187 206 196 183 191 204 225 307 50 151 148 149 127 109 72 65 66 66 68 76 83 88 88 91 106 107 94 93 97 100 99 90 72 54 49 44 41 41 38 32 29 25 23 19 15 20 27 25 23 22 14 349 323 303 297 297 298 293 280 272 269 266 267 266
91 90 88 90 98 94 96 126 189 188 160 155 145 157 185 173 179 185 170 173 175 174 179 182 190 193 189 190 109 118 150 148 134 134 128 94 75 69 72 77 80 84 91 98 92 94 109 107 99 101 108 110 102 72 53 51 52 50 47 44 40 38 35 30 24 18 19 24 25 22 24 25 7 351 338 330 328 320 304 286 276 271 268 271 268
86 88 90 87 82 81 87 80 21 358 108 144 133 132 158 158 157 164 161 163 163 157 162 172 190 194 179 159 127 123 130 124 142 153 156 140 116 91 103 100 94 101 104 104 97 86 95 106 109 115 117 109 84 58 58 56 55 54 50 48 45 45 43 40 37 32 28 28 26 22 22 22 14 9 6 357 353 345 337 327 308 292 282 281 276
87 79 79 83 70 67 81 74 41 29 50 91 106 110 130 137 138 140 140 143 139 143 158 162 164 172 173 155 145 140 125 119 167 181 207 152 126 137 145 132 121 135 130 119 112 100 94 95 99 104 99 81 62 54 60 58 56 57 55 52 49 49 48 45 44 42 40 38 35 31 28 27 23 22 22 13 8 7 4 360 349 334 312 296 289
92 77 65 73 70 71 80 75 69 63 65 77 86 100 116 118 121 124 126 132 134 136 144 143 134 137 147 150 152 162 166 177 178 181 202 155 135 148 144 136 136 145 140 127 122 116 111 107 101 99 84 58 53 52 56 56 57 58 56 55 51 49 49 47 45 43 41 40 39 37 34 32 29 27 26 21 17 18 16 13 12 11 8 354 341
106 95 78 77 83 86 85 81 82 79 81 87 87 94 108 116 118 118 120 124 127 130 127 123 122 128 141 152 154 159 171 182 184 190 196 160 145 149 139 138 133 123 127 120 113 109 107 108 107 105 97 72 48 40 47 48 51 58 57 52 48 45 45 44 41 39 37 36 35 34 32 30 29 27 24 22 19 17 15 12 12 12 13 16 17
113 102 99 98 97 97 91 90 91 84 85 93 96 98 107 121 117 112 118 122 122 122 121 123 128 133 139 147 151 151 154 159 167 185 187 164 152 147 137 140 138 136 143 131 113 105 100 101 103 102 99 91 59 26 36 42 44 57 55 45 39 36 36 35 34 31 29 28 26 25 25 23 22 22 20 18 17 15 11 7 8 8 7 8 12
118 108 106 104 99 96 90 91 94 94 93 92 99 101 101 108 107 103 110 114 111 110 112 118 116 109 107 104 112 118 113 94 82 116 156 162 144 126 121 137 151 156 156 139 121 109 102 103 108 110 107 102 91 34 25 39 45 52 49 40 31 26 28 28 27 25 21 20 18 16 15 13 11 11 10 9 8 7 6 3 2 2 2 1 1
117 113 106 98 95 97 98 98 100 104 102 97 101 103 102 106 107 106 110 111 111 110 108 107 97 91 93 91 93 93 92 85 57 72 116 124 111 112 120 152 162 152 140 124 118 115 113 109 106 113 120 113 102 70 27 42 44 37 32 33 26 21 29 33 30 28 23 19 17 14 11 8 5 2 359 358 356 354 354 353 353 354 354 355 355
122 117 112 106 105 107 109 111 111 111 110 106 105 106 107 110 110 110 113 114 114 110 105 103 96 91 95 97 96 85 75 82 67 57 72 91 102 109 134 169 130 110 115 106 108 117 118 114 108 106 110 108 89 79 80 57 46 34 13 13 15 19 33 38 33 30 25 21 18 15 12 9 6 2 359 356 353 350 347 345 343 343 343 343 344
128 123 121 117 114 116 115 116 115 109 107 109 108 109 110 110 109 110 112 115 113 109 107 106 101 100 103 101 97 86 77 79 73 60 66 89 103 82 70 98 76 63 135 116 99 105 98 99 110 115 109 97 84 85 87 54 53 62 12 348 7 18 28 31 27 23 20 19 17 14 10 7 4 2 360 357 356 353 351 348 343 340 338 335 334
132 130 129 122 116 118 118 118 118 113 112 116 116 116 117 115 113 112 112 115 113 111 112 111 104 101 99 98 96 92 91 85 79 72 66 75 85 46 41 60 55 52 107 123 88 86 87 77 88 108 112 96 92 90 63 34 53 82 66 357 6 14 16 19 16 12 10 10 10 10 8 4 0 358 356 354 353 352 350 348 346 342 339 335 332
138 138 135 128 123 122 122 122 122 119 118 120 121 122 124 121 119 118 119 121 120 117 115 111 105 102 101 101 101 99 98 92 86 82 72 70 77 58 49 57 55 60 101 119 88 71 95 90 78 91 101 96 103 101 52 37 29 32 36 351 360 3 3 7 4 360 359 355 355 360 0 359 357 353 351 349 348 346 345 344 343 342 339 337 335
144 143 140 139 135 130 128 127 127 126 124 125 128 129 129 128 127 128 129 127 126 123 119 115 110 109 107 105 105 103 100 96 94 91 80 73 76 77 67 70 64 57 89 107 103 83 99 112 116 109 106 104 134 128 89 52 3 7 40 261 347 356 350 359 358 350 346 342 341 345 348 351 352 348 346 347 347 343 339 338 338 338 337 335 335
152 149 151 151 144 138 137 137 136 136 135 133 133 133 133 136 135 135 135 132 129 127 125 123 118 115 111 104 99 100 103 104 103 107 105 91 95 113 102 94 87 67 86 107 121 131 121 125 136 131 113 105 136 151 118 35 351 359 318 250 326 351 346 351 351 341 337 336 330 329 334 341 346 347 347 351 353 350 344 340 335 332 331 332 334
161 158 162 162 155 151 148 145 143 142 142 140 139 140 140 139 138 139 140 134 130 131 128 123 119 118 116 113 106 103 112 114 93 114 135 147 147 131 106 95 93 73 68 96 126 147 151 149 155 161 157 122 128 181 194 316 337 351 334 272 307 335 320 329 333 327 328 327 321 322 327 333 338 342 346 351 352 352 349 347 340 332 330 333 333
167 168 171 167 164 162 154 149 150 149 149 148 146 145 142 141 143 142 140 137 134 136 132 124 123 123 119 118 115 111 114 98 50 85 111 32 58 97 94 89 89 74 36 24 82 145 159 166 176 175 171 186 218 166 186 284 293 350 3 321 303 305 290 326 333 329 332 331 325 323 323 326 333 339 344 347 348 347 345 345 343 338 336 337 335
175 178 175 171 171 170 160 156 158 156 156 156 154 152 150 151 150 138 136 139 140 141 140 135 134 132 127 124 120 115 105 84 65 68 37 345 25 83 105 120 135 151 201 344 18 108 146 161 185 174 161 198 244 174 156 293 234 38 350 312 300 336 14 13 357 344 343 340 331 323 318 323 333 338 339 341 342 341 338 337 337 334 333 336 337
181 180 173 173 178 175 169 167 166 164 166 165 162 162 160 161 157 145 143 147 148 153 151 144 143 141 140 139 133 130 120 103 102 62 12 320 342 24 55 96 157 171 184 359 10 13 65 98 204 171 148 248 286 288 345 2 357 4 335 304 330 21 9 6 4 352 342 334 328 323 318 322 333 337 336 336 336 334 331 328 325 324 325 330 333
180 180 176 180 186 183 178 178 175 172 174 176 175 174 172 170 167 160 158 160 161 160 148 140 144 144 143 146 141 142 143 138 171 305 351 346 332 343 351 8 70 156 176 149 328 302 306 151 230 245 248 268 282 298 326 334 327 341 358 349 360 3 354 355 355 346 336 327 325 325 322 323 329 330 329 329 329 327 324 320 316 314 316 322 326
181 183 186 188 190 190 188 189 188 182 181 185 186 182 178 178 177 173 169 168 167 159 151 149 151 146 144 150 148 153 162 159 207 270 290 281 289 296 302 324 348 306 267 271 273 293 296 250 228 227 244 255 252 250 266 295 315 347 13 1 351 346 344 345 342 336 329 322 320 324 324 323 323 322 322 321 321 321 318 314 312 310 309 312 317
185 187 194 196 196 197 198 198 199 196 191 192 193 190 187 185 183 180 175 173 172 165 163 164 159 160 166 161 146 149 177 185 204 230 242 252 261 271 277 285 292 296 296 284 263 292 310 311 294 275 254 254 254 235 229 259 334 9 359 344 332 328 329 328 327 325 322 318 320 322 321 319 318 318 316 314 316 317 314 312 312 311 307 304 307
195 192 195 202 203 205 210 208 205 205 201 199 200 196 193 191 188 186 183 181 181 175 171 171 168 172 179 172 162 175 202 222 250 249 250 253 250 248 250 262 268 271 281 283 266 280 301 300 291 287 270 259 268 240 207 254 11 345 327 325 321 322 322 317 315 316 315 319 323 320 315 314 313 311 310 310 313 315 314 312 311 309 306 303 304
203 202 205 211 211 210 217 218 214 211 206 205 207 202 196 194 190 189 190 188 186 181 177 181 183 184 190 194 196 202 213 237 252 249 251 254 251 250 247 246 247 246 256 261 247 257 280 278 279 295 314 312 313 310 284 349 45 26 358 355 336 327 322 315 311 312 313 318 323 318 311 309 308 307 307 308 309 310 312 312 311 310 308 306 305
212 213 215 222 223 219 220 222 222 219 212 209 211 205 200 198 193 191 192 189 183 174 166 168 179 183 188 197 206 218 240 263 261 250 252 256 252 250 246 243 245 244 246 248 237 239 262 278 292 313 337 355 3 9 33 74 84 68 24 351 333 327 323 318 316 315 312 314 318 314 307 308 310 308 306 306 305 308 311 313 314 313 311 308 306
227 223 222 227 231 232 232 231 231 231 222 215 215 211 205 201 196 195 195 193 192 183 175 178 187 191 200 211 222 237 254 262 253 244 247 253 254 253 246 239 240 241 242 241 231 227 243 273 330 347 8 41 40 29 25 39 35 4 344 333 330 328 324 322 319 310 307 311 313 308 304 310 315 306 300 301 304 306 307 308 309 311 312 310 307
233 231 230 230 231 233 235 234 239 251 231 207 211 216 212 205 201 199 197 198 203 200 197 204 207 208 217 222 223 232 240 239 238 239 246 253 254 255 248 236 235 236 237 236 232 234 240 232 11 15 15 52 57 41 351 342 338 334 333 327 322 318 314 313 307 303 307 313 310 299 295 302 307 301 298 302 306 307 307 308 309 311 314 315 312
236 233 232 233 232 232 233 234 240 253 234 204 207 214 213 209 205 201 197 201 210 213 215 223 223 218 220 221 217 216 216 222 228 230 238 246 243 239 242 238 233 233 234 235 235 238 245 244 240 294 288 222 78 41 318 319 330 334 329 319 313 308 305 302 300 302 310 316 307 292 285 293 305 306 306 310 312 311 311 312 312 312 313 311 308
232 232 232 236 237 234 234 236 238 238 228 214 213 217 216 213 210 204 202 205 216 225 229 230 225 222 223 221 217 214 211 216 221 218 222 228 223 220 224 218 213 217 220 227 233 233 235 234 228 221 224 242 268 292 300 310 312 304 297 296 297 300 303 304 304 305 310 314 309 300 295 304 314 314 312 315 316 314 314 314 313 313 311 308 305
237 235 228 233 242 243 238 238 239 238 230 218 217 222 224 220 217 214 215 218 223 230 231 224 219 223 224 217 213 214 205 200 205 208 205 201 200 193 179 174 183 191 198 208 208 202 200 200 207 218 235 262 282 293 300 304 299 294 295 297 300 310 316 314 311 309 311 314 317 319 321 324 326 323 322 324 322 319 317 316 315 314 314 317 320
247 244 235 232 240 243 241 241 242 241 237 227 222 225 227 227 225 223 225 231 235 235 234 228 224 224 219 208 208 211 197 188 202 212 199 184 181 174 164 166 178 185 190 197 193 190 199 208 218 237 259 277 290 299 304 307 306 304 308 314 320 325 320 311 306 308 315 318 319 322 327 330 332 330 327 325 321 319 318 318 320 321 323 328 334
254 256 256 251 248 248 248 247 245 241 237 231 227 227 229 230 230 230 234 241 244 243 238 232 226 217 203 193 196 203 199 200 215 216 199 184 177 172 167 164 172 188 192 195 200 205 214 229 248 267 282 292 299 305 313 319 320 315 315 320 322 322 316 304 298 302 311 316 317 321 328 331 331 331 328 324 319 316 316 317 320 324 328 330 330
274 263 260 255 251 252 253 251 247 243 237 231 227 226 227 230 233 238 241 241 242 242 233 221 212 203 193 186 189 195 195 201 209 204 193 186 178 172 173 171 181 206 210 187 186 200 209 242 284 298 307 311 312 317 324 328 321 308 301 299 295 299 299 292 291 297 301 305 313 324 333 336 335 332 331 327 320 315 317 318 319 323 326 329 330